www.pogodaiklimat.ru

Погода и климат >> Архив погоды >> Россия >> Магаданская область >> Усть-Бохапча


ПОГОДА в Усть-Бохапче

  • Прогноз погоды в Усть-Бохапче
  • Монитор погоды в Усть-Бохапче

АРХИВ ПОГОДЫ в Усть-Бохапче

Время (UTC), дата Ветер
(напр.,м/с)
 
Видим.   Явления Облачность Т
(С)
Тd
(С)
f
(%)
Тe
(С)
Тes
(С)
Комфортность P
(гПа)
Po
(гПа)
Тmin
(С)
Tmax
(С)
R
(мм)
R24
(мм)
S
(см)
09 19.04 штиль 0 50 км 10/5 1000 м
[Sc As op]
-0.3 -4.7 72 -1 -1 1020.1 976.7 +3.2
12 19.04 штиль 0 50 км 10/3 1000 м
[Sc As op]
-5.6 -6.8 91 -7 -7 1020.9 976.6
15 19.04 штиль 0 50 км 10/0
[Cs]
-7.8 -8.7 93 -9 -9 1020.7 976.1
18 19.04 З 1 н/о н/о -8.3 -9.2 93 -11 -11 1019.8 975.1
21 19.04 штиль 0 н/о н/о -6.0 -8.8 81 -7 -7 1018.8 974.5 -9.5 68
00 20.04 СЗ 3 10 км слаб. ливневой снег 10/6 600 м
[Cb cap As op]
+2.2 -1.7 75 -2 -1 1017.9 975.0
03 20.04 С 2 10 км слаб. ливневой дождь со снегом 10/10 600 м
[Cb cap]
+1.7 -0.9 83 -2 -2 1019.0 976.0
06 20.04 ЮЗ 1 50 км {ливн. осадки} 10/10 600 м
[Cb cap]
+2.8 -1.6 73 +1 +1 1019.1 976.2
09 20.04 С 2 50 км 10/10 600 м
[Sc]
+1.8 -2.8 71 -1 -1 1019.6 976.5 +3.3 0.0
12 20.04 СВ 2 50 км 10/10 600 м
[Sc]
+0.8 -2.9 76 -3 -3 1020.4 977.2
15 20.04 штиль 0 50 км 10/10 600 м
[Sc]
-1.9 -2.8 94 -3 -3 1020.8 977.1
18 20.04 ЮВ 1 50 км 10/10 600 м
[Sc]
-2.7 -3.9 91 -5 -5 1021.3 977.5
21 20.04 ЮВ 4 50 км 8/6 600 м
[Sc Ci fib]
-0.9 -5.8 69 -6 -6 1021.1 977.6 -2.8 68
00 21.04 ЮВ 4 50 км 6/6 1000 м
[Sc]
+1.0 -5.1 64 -4 -2 1020.0 976.8
03 21.04 ЮВ 3 50 км 6/3 1000 м
[Sc Ci fib]
+3.1 -5.3 54 -0 +5 1018.8 976.0
06 21.04 З 2 50 км 10/0
[Cs]
+3.8 -5.2 52 +2 +5 1017.6 975.0
09 21.04 штиль 0 50 км 8/1 1000 м
[Sc Ci fib]
+1.4 -4.3 66 +1 +1 1017.9 974.8 +4.8
12 21.04 Ю 1 50 км 1/1 1000 м
[Sc]
-4.0 -6.1 85 -6 -6 1019.1 975.1
15 21.04 Ю 1 50 км 8/0
[Ci fib]
-7.0 -8.2 91 -9 -9 1019.1 974.7
18 21.04 штиль 0 50 км 8/1 1000 м
[Sc Ci fib]
-6.7 -8.3 88 -8 -8 1018.6 974.2
21 21.04 Ю 1 50 км 8/3 1000 м
[Sc Ci fib]
-2.2 -6.1 75 -4 -2 1017.6 974.0 -7.4 68
00 22.04 З 4 50 км 8/6 1000 м
[Sc Ci fib]
+1.3 -5.4 61 -3 -1 1015.9 972.9
03 22.04 З 2 50 км 10/4 600 м
[Cu med, cong Cs]
+3.0 -6.7 49 +1 +6 1014.4 971.8
06 22.04 СЗ 4 50 км 10/3 600 м
[Cu med, cong Cs]
+2.7 -6.6 50 -1 0 1013.6 970.9
09 22.04 СВ 1 50 км 10/0
[Cs]
+1.4 -6.7 55 0 0 1013.7 970.8 +3.6
12 22.04 С 1 50 км 10/0
[Cs]
-0.6 -7.4 60 -2 -2 1014.5 971.3
15 22.04 ЮВ 2 50 км 10/0
[Cs]
-3.9 -6.9 80 -8 -8 1014.8 971.1
18 22.04 ЮВ 1 50 км 10/0
[As op]
-2.8 -6.9 73 -5 -5 1014.5 971.0
21 22.04 Ю 2 50 км 10/0
[As trans]
-1.1 -7.1 64 -4 -3 1013.8 970.6 -4.5 77
00 23.04 ЮВ 4 50 км 10/3 600 м
[Sc Cs]
+1.0 -6.0 60 -4 -1 1012.7 969.8
03 23.04 ЮВ 4 н/о н/о +2.1 -4.2 63 -2 -2 1011.7 969.0
06 23.04 З 2 50 км 10/4 600 м
[Sc Cs]
+3.2 -4.8 56 +1 +3 1011.4 968.9
09 23.04 СВ 1 50 км 6/6 600 м
[Sc]
+1.7 -3.9 66 0 0 1012.1 969.3 +4.4
12 23.04 штиль 0 50 км 10/10 1000 м
[Sc]
-1.5 -4.5 80 -3 -3 1013.1 969.8
15 23.04 штиль 0 50 км 10/10 1000 м
[Sc]
-2.2 -3.7 89 -3 -3 1013.6 970.2
18 23.04 штиль 0 50 км 10/10 1000 м
[Sc]
-2.9 -4.2 91 -4 -4 1014.3 970.7
21 23.04 ЮВ 2 50 км 10/9 1000 м
[Sc Ci fib]
+0.9 -3.9 70 -2 -2 1013.8 970.8 -3.2 67
00 24.04 ЮВ 3 50 км 9/9 1000 м
[Sc]
+2.6 -4.5 59 -1 -0 1013.7 971.0
03 24.04 СЗ 2 50 км 10/10 1000 м
[Sc]
+2.7 -5.9 53 0 0 1013.3 970.6
06 24.04 В 2 50 км 9/9 1000 м
[Sc diur, vesp]
+2.3 -3.4 66 -1 -0 1013.3 970.6
09 24.04 штиль 0 50 км 4/1 1000 м
[Sc Ci]
+2.5 -6.0 53 +2 +2 1013.2 970.5 +3.9
12 24.04 штиль 0 50 км ясно -4.8 -6.6 87 -6 -6 1014.7 970.8
15 24.04 штиль 0 50 км ясно -9.0 -9.3 98 -10 -10 1015.3 970.7
18 24.04 Ю 1 50 км ясно -11.3 -11.6 98 -14 -14 1015.8 970.8
21 24.04 штиль 0 50 км 1/1 1000 м
[Sc]
-4.2 -8.5 72 -5 -2 1014.0 970.3 -12.6 66
00 25.04 ЮВ 1 50 км ясно +2.5 -6.7 51 +2 +11 опасность
простуды
1012.3 969.7
03 25.04 СЗ 2 н/о н/о +2.5 -8.2 45 0 0 1011.0 968.4
06 25.04 С 2 50 км 3/3 600 м
[Cu med, cong]
+2.1 -8.9 44 -0 +3 1009.9 967.3
09 25.04 С 1 50 км ясно +0.9 -9.1 47 -0 0 1009.7 966.9 +5.4
12 25.04 Ю 1 50 км ясно -5.8 -8.8 79 -8 -8 1010.7 966.8
15 25.04 штиль 0 50 км ясно -11.9 -12.9 92 -12 -12 1010.8 965.9
18 25.04 Ю 1 50 км ясно -13.1 -13.7 95 -15 -15 1010.0 964.9
21 25.04 штиль 0 50 км ясно -7.7 -11.6 74 -8 -5 1008.1 964.0 -14.2 65
00 26.04 С 1 50 км 3/3 1000 м
[Sc]
-0.3 -9.5 50 -2 +5 1004.9 962.2
03 26.04 С 2 50 км 8/8 1000 м
[Sc]
+1.5 -10.8 39 -1 +1 1002.0 959.6
06 26.04 СЗ 4 50 км 10/10 1000 м
[Sc]
-0.1 -3.9 76 -5 -5 1001.0 958.4

 

Местоположение метеостанции Усть-Бохапча (Магаданская область, Россия): широта 62.10 долгота 150.60 высота над уровнем моря 349 м.

В архиве по умолчанию представлена погода в Усть-Бохапче за последнюю неделю. Архивные данные за месяц целиком и за предыдущие месяцы, начиная с января 2011 года, Вы можете получить, выбрав интересующий диапазон дат из раскрывающегося списка и нажав кнопку "Ввод!".


*Определитесь, кто Вы:
робот инопланетянин человек

Внимание! Время в таблицах - всемирное. Для получения местного времени необходимо прибавить поправку, которая равна 11 ч.

Смотрите также архив погоды в соседних городах и на ближайших метеорологических станциях:

Погода на Озере Джека Лондона (Магаданская область, Россия) (57 км)
Погода в Ягодной (Магаданская область, Россия) (69 км)
Погода в Совхозе Эльген (Магаданская область, Россия) (78 км)
Погода в Среднекане (Магаданская область, Россия) (96 км)
Погода в Усть-Омчуге (Магаданская область, Россия) (121 км)
Погода в Сеймчане (Магаданская область, Россия) (129 км)
Погода в Талой (Магаданская область, Россия) (140 км)
Погода в Сусумане (Магаданская область, Россия) (149 км)
Погода в Колымской (Магаданская область, Россия) (159 км)
Погода в Мадауне (Магаданская область, Россия) (167 км)

Пояснения к столбцам:

Ветер - указаны скорость ветра в м/с - средняя за 10 мин, порывы в срок и между сроками (в фигурных скобках) и направление, откуда дует ветер: С - северный, СВ - северо-восточный, В - восточный, ЮВ - юго-восточный, Ю - южный, ЮЗ - юго-западный, З - западный, СЗ - северо-западный.
Видимость - горизонтальная дальность видимости в метрах или километрах. При видимости от 1 до 10 км при отсутствии осадков обычно наблюдается дымка, при ухудшении видимости до 1 км и менее - туман. В сухую погоду видимость может ухудшаться дымом, пылью или мглою.
Явления - указаны атмосферные явления, наблюдавшиеся в срок или в последний час перед сроком; фигурными скобками обозначены явления, наблюдавшиеся между сроками (за 1-3 часа до срока); квадратными скобками обозначены град или гололедные отложения с указанием их диаметра в мм.
Облачность - указаны через наклонную черту общая и нижняя облачность в баллах и высота нижней границы облаков в метрах; квадратными скобками обозначены формы облаков: Ci - перистые, Cs - перисто-слоистые, Cc - перисто-кучевые, Ac - высококучевые, As - высокослоистые, Sc - слоисто-кучевые, Ns - слоисто-дождевые, Cu - кучевые, Cb - кучево-дождевые. Подробнее классификацию облаков см. в Атласе облаков (PDF).
T - Температура воздуха - температура, измеренная на высоте 2 м над землей.
Td - Температура точки росы - температура, при понижении до которой содержащийся в воздухе водяной пар достигнет насыщения.
f - Относительная влажность воздуха - влажноcть воздуха, измеренная на высоте 2 м над землей.
Te - Эффективная температура - температура, которую ощущает одетый по сезону человек в тени. Характеристика душности погоды. При расчете учитывается влияние влажности воздуха и скорости ветра на теплоощущения человека.
Tes - Эффективная температура на солнце - температура, которую ощущает человек, с поправкой на солнечный нагрев. Характеристика знойности погоды. Зависит от высоты солнца над горизонтом, облачности и скорости ветра. Ночью, в пасмурную погоду, а также при ветре 12 м/с и более поправка равна нулю.
P - Атмосферное давление - приведенное к уровню моря атмосферное давление.
Po - Атмосферное давление - измеренное на уровне метеостанции атмосферное давление.
Tmin - Минимальная температура - минимум температуры воздуха на высоте 2 м над землей.
Tmax - Максимальная температура - максимум температуры воздуха на высоте 2 м над землей.
R - Количество осадков - Количество выпавших осадков за период времени, мм. При наведении курсора мыши на число - период времени, за который выпало указанное количество осадков.
R24 - Количество осадков - Количество выпавших осадков за 24 часа, мм.
S - Снежный покров - Высота снежного покрова, см. При наведении курсора мыши на число - состояние снежного покрова и степень покрытия местности в баллах.